Retour au catalogue

QPS-SAR-12 KUSHINADA-I

ActifScienceVLEO
NORAD 65116·PAYLOAD·🇯🇵 Japan

Lancé Aug 5, 2025 depuis Rocket Lab Launch Complex 1

Loading…

Prochains Passages (prochaines 24 heures)

TLE

FraisSource: Space-Track

Époque: Sep 14, 2026, 11:02 UTC

1 65116U 25169A   26257.46012797  .00003568  00000-0  28541-3 0  9995
2 65116  42.0104 244.1079 0006727  76.9762 283.1815 15.01490242 60831

Suivez QPS-SAR-12 KUSHINADA-I en temps réel avec AllMySat

Download on the App Store